Home   Weather   Pickering   Past weeks

Flag for Canada Past Weather in Pickering, Ontario, Canada — Yesterday and Last 2 Weeks

Now
63 °F

Light rain. More clouds than sun.


Feels Like: 63 °F
Forecast: N/A
Wind: 7 mph from Southwest

Location: Toronto Buttonville

Current Time: Sep 26, 2016 at 4:48:41 PM

Latest Report: Sep 26, 2016 at 4:00 PM


Visibility: 10 mi

Pressure: 29.84 "Hg

Humidity: 94%

Dew Point: 61 °F

Location of PickeringLocation

Past Weather in Pickering — Graph

°F

Pickering Temperature Yesterday

Maximum temperature yesterday: 64 °F (at 2:00 PM)
Minimum temperature yesterday: 43 °F (at 6:00 AM)
Average temperature yesterday: 54 °F

High & Low Weather Summary for the Past Weeks

 TemperatureHumidityPressure
High82 °F (Sep 13, 3:00 PM)100% (Sep 18, 5:45 AM)30.38 "Hg (Sep 18, 5:45 AM)
Low43 °F (Sep 25, 6:00 AM)22% (Sep 20, 6:00 PM)29.82 "Hg (Sep 26, 3:00 PM)
Average64 °F68%30.12 "Hg
* Reported Sep 11 3:00 PM — Sep 26 3:57 PM, Pickering, Weather by CustomWeather, © 2016

Note: Actual official high and low records may vary slightly from our data, if they occured in-between our weather recording intervals... More about our weather records

Advertising

Pickering Weather History for the Previous 24 Hours

Scroll right to see more
 ConditionsComfort  
Time TempWeatherWind HumidityBarometerVisibility
3:57 PM
Mon, Sep 26
63 °FLight rain. Cloudy.7 mph94%29.84 "Hg7 mi
3:00 PM61 °FLow clouds.7 mph94%29.82 "Hg8 mi
1:55 PM59 °FLight rain. Fog.8 mph94%29.86 "Hg4 mi
1:00 PM59 °FLight rain. Fog.6 mph88%29.88 "Hg4 mi
12:57 PM59 °FLight rain. Fog.7 mph88%29.88 "Hg2 mi
12:00 PM63 °FMostly cloudy.9 mph68%29.87 "Hg15 mi
11:00 AM63 °FMostly cloudy.12 mph64%29.90 "Hg15 mi
10:00 AM61 °FOvercast.10 mph68%29.93 "Hg15 mi
9:00 AM59 °FMostly cloudy.12 mph72%29.93 "Hg15 mi
8:00 AM57 °FMostly cloudy.8 mph72%29.96 "Hg15 mi
7:00 AM55 °FPassing clouds.9 mph77%29.98 "Hg15 mi
6:00 AM57 °FPassing clouds.12 mph67%30.00 "Hg15 mi
5:00 AM57 °FPassing clouds.9 mph67%30.01 "Hg15 mi
4:00 AM57 °FOvercast.9 mph67%30.04 "Hg15 mi
3:00 AM57 °FOvercast.9 mph63%30.06 "Hg15 mi
2:00 AM54 °FPassing clouds.3 mph72%30.09 "Hg15 mi
1:00 AM52 °FPassing clouds.3 mph77%30.11 "Hg15 mi
12:00 AM52 °FPassing clouds.2 mph77%30.13 "Hg15 mi
11:00 PM
Sun, Sep 25
50 °FPassing clouds.3 mph82%30.15 "Hg15 mi
10:00 PM52 °FPassing clouds.2 mph72%30.17 "Hg15 mi
9:00 PM55 °FPassing clouds.5 mph63%30.18 "Hg15 mi
8:00 PM55 °FPassing clouds.3 mph63%30.18 "Hg15 mi
7:00 PM57 °FPartly sunny.8 mph51%30.18 "Hg15 mi
6:00 PM59 °FPartly sunny.6 mph45%30.19 "Hg15 mi
5:00 PM61 °FPartly sunny.9 mph45%30.19 "Hg15 mi
4:00 PM63 °FPartly sunny.8 mph39%30.20 "Hg15 mi
Weather by CustomWeather, © 2016

See weather overviewHow to use our weather pages